Regional Weather Roundup
Issued by NWS

Home | Current Version | Previous Version | Graphics & Text | Print | Product List | Glossary On
Versions: 1 2 3 4 5 6 7 8 9 10 11 12 13 14 15 16 17 18 19 20 21 22 23 24 25 26 27 28 29 30 31 32 33 34 35 36 37 38 39 40 41 42 43 44 45 46 47 48 49 50
492
ASUS45 KBOU 100607
RWRCO

WEATHER ROUNDUP FOR COLORADO
NATIONAL WEATHER SERVICE DENVER/BOULDER CO
1100 PM MST TUE FEB 09 2016

NOTE: "FAIR" INDICATES FEW OR NO CLOUDS BELOW 12000 FEET WITH NO
SIGNIFICANT WEATHER AND/OR OBSTRUCTIONS TO VISIBILITY.

COZ001>005-013-030-031-100700-
...NORTHWEST COLORADO...

CITY           SKY/WX    TMP DP  RH WIND       PRES   REMARKS
CRAIG          CLOUDY     1  -3  83 W3        30.48S
HAYDEN         CLOUDY    19  12  73 SE15      30.45F WCI   5
MEEKER         CLOUDY    14  10  84 NE5       30.46F WCI   6
MOUNT WERNER   NOT AVBL
STEAMBOAT SPGS CLOUDY    15  14  93 CALM      30.48S
WALDEN         CLOUDY    12   5  73 SE8       30.44S WCI   1
$$

COZ006>008-011-100700-
...WEST CENTRAL VALLEYS...

CITY           SKY/WX    TMP DP  RH WIND       PRES   REMARKS
GRAND JUNCTION CLOUDY    25  21  85 SW3       30.46S
MONTROSE       CLOUDY    25  18  74 S10       30.50S WCI  15
EAGLE          CLEAR     16  12  86 E6        30.53S WCI   7
RIFLE          CLOUDY    19  14  81 SE6       30.49S WCI  11
DELTA          CLOUDY    30  23  75 NE7       30.49S WCI  23
NUCLA          CLOUDY    30  21  69 E9        30.49S WCI  22
$$

COZ017>023-064>068-100700-
...SOUTHWEST COLORADO...

CITY           SKY/WX    TMP DP  RH WIND       PRES   REMARKS
DURANGO        CLOUDY    20  14  77 CALM      30.43S
CORTEZ         CLOUDY    23  19  85 NE7       30.42R WCI  15
PAGOSA SPRINGS CLOUDY    21  18  90 CALM      30.46S
TELLURIDE      CLOUDY    29  12  47 SE8       30.52S WCI  22
WOLF CREEK PAS CLOUDY    27  -4  26 NE12      30.59R WCI  16
$$

COZ009-010-012-014-032>034-037-058>063-100700-
...CENTRAL COLORADO...

CITY           SKY/WX    TMP DP  RH WIND       PRES   REMARKS
ASPEN          CLOUDY    18  11  74 CALM      30.48S
BUENA VISTA    CLOUDY    31  10  42 N6        30.44S WCI  25
COPPER MTN     CLOUDY    28  -2  26 W15       30.53F WCI  17
BERTHOUD PASS  FAIR      19   9  63 NW17      30.52R WCI   4
COTTONWOOD PAS CLOUDY    37  -6  15 W12G22    30.48S
GUNNISON       CLOUDY    -2 N/A N/A CALM      30.59R
KREMMLING      CLOUDY     0  -4  85 CALM      30.54R
LEADVILLE      CLOUDY    13  -1  54 NE5       30.49S WCI   5
MONARCH PASS   CLOUDY    27   0  31 W10       30.65R WCI  17
SALIDA         NOT AVBL
SUNLIGHT       CLOUDY    30  10  43 CALM        N/A
WILKERSON PASS CLOUDY    30 -11  16 N12G26    30.50S WCI  21
$$

COZ069>075-100700-
...SAN LUIS VALLEY/SANGRE DE CRISTO MOUNTAINS...

CITY           SKY/WX    TMP DP  RH WIND       PRES   REMARKS
ALAMOSA        CLOUDY    23  19  85 CALM      30.45R
LA VETA PASS   CLOUDY    27  14  59 S5        30.46F WCI  21
SAGUACHE       CLOUDY    28  16  59 N12       30.46S WCI  18
$$

COZ035-036-038>040-100700-
...NORTHERN COLORADO FRONT RANGE...

CITY           SKY/WX    TMP DP  RH WIND       PRES   REMARKS
DENVER INTL AP CLOUDY    38  19  46 SW13      30.24F
DMNS CITY PARK   N/A     38  18  44 SE13      30.25F
AURORA         CLEAR     37  18  46 SW9       30.26F
FRONT RANGE AP   N/A     41  18  38 SW13      30.25F
ERIE MUNI ARPT CLOUDY    31  21  67 S3        30.23F
BOULDER MUN AP CLOUDY    50  14  23 W17G23    30.22F
CENTENNIAL     CLOUDY    38  14  37 W9        30.27F
BROOMFIELD     CLOUDY    45  14  29 W6        30.25F
FORT COLLINS   CLOUDY    36  21  55 S7        30.22F
LONGMONT       CLOUDY    30  20  65 CALM      30.25S
$$

COZ041-046-047-076>085-087-088-100700-
...PIKES PEAK/PALMER DIVIDE AND SOUTHERN FOOTHILLS...

CITY           SKY/WX    TMP DP  RH WIND       PRES   REMARKS
COLO. SPRINGS  CLOUDY    29  17  61 N8        30.32F WCI  21
A. F. ACADEMY  CLOUDY    23  15  69 N8        30.31F WCI  14
SCHRIEVER AFB  FAIR      34  17  49 W5        30.31F WCI  30
ELLICOTT       NOT AVBL
FALCON         NOT AVBL
FORT CARSON    CLOUDY    31  19  60 NW12      30.29F WCI  22
LIMON          CLOUDY    27  19  72 NW9       30.26F WCI  18
MONUMENT HILL  CLOUDY    34  10  37 W9        30.32F WCI  26
TRINIDAD       CLOUDY    41  17  38 SW14      30.32F
$$

COZ042>045-048>051-090-091-100700-
...NORTHEAST COLORADO...

CITY           SKY/WX    TMP DP  RH WIND       PRES   REMARKS
GREELEY ARPT   CLOUDY    27  21  80 CALM      30.23F
AKRON          CLOUDY    32  24  72 W14       30.20F WCI  22
BURLINGTON     CLEAR     33  24  69 SW13      30.21F WCI  24
WRAY           CLEAR     38  28  68 W12       30.17F
STERLING       CLOUDY    37  27  65 W12       30.17F
HOLYOKE        CLEAR     41  30  65 W16       30.15S
FORT MORGAN    CLOUDY    30  24  79 SW6       30.22F WCI  24
$$

COZ086-089-092>099-100700-
...SOUTHEAST COLORADO...

CITY           SKY/WX    TMP DP  RH WIND       PRES   REMARKS
PUEBLO         CLOUDY    29  22  75 N8        30.29S WCI  21
LA JUNTA       CLEAR     32  24  72 W8        30.28S WCI  25
LAMAR          CLEAR     36  27  69 W12       30.26S
SPRINGFIELD      N/A     31  23  72 SW3       30.28F
$$




USA.gov is the U.S. government's official web portal to all federal, state and local government web resources and services.